Location: Waco, TX
(31.5480°N, 97.1670°W)
Time: 18:25:29
(UTC-05:00)

ISS - Pass Details

Date: 18 September 2018
Orbit: 403 x 409 km, 51.6° (Epoch: 24 September)

Event Time Altitude Azimuth Distance (km) Brightness Sun altitude
Rises 21:19:30 0° 218° (SW) 2,318 0.3 -23.7°
Enters shadow 21:21:34 10° 216° (SW) 1,471 -0.8 -24.1°
Reaches altitude 10° 21:21:35 10° 215° (SW) 1,460 - -24.1°
Maximum altitude 21:24:50 66° 133° (SE) 447 - -24.8°
Drops below altitude 10° 21:28:06 10° 51° (NE) 1,466 - -25.4°
Sets 21:30:11 0° 48° (NE) 2,328 - -25.9°
